This is the latest recevied weather packets stored in our database for station/object CE4TQY-10. If no packets are shown the sender has not sent any weather packets the latest 1 day(s).
| Time | Temp. | Humidity | Pressure | Rain* | Wind** | Luminosity | Snow |
|---|---|---|---|---|---|---|---|
| 1777913405 | 16.67° C | 45% | 1019.6 hPa | - | - | - | - |
| 1777912505 | 16.67° C | 47% | 1019.6 hPa | - | - | - | - |
| 1777911635 | 17.22° C | 48% | 1019.7 hPa | - | - | - | - |
| 1777911604 | 17.22° C | 48% | 1019.7 hPa | - | - | - | - |
| 1777910702 | 17.22° C | 48% | 1019.5 hPa | - | - | - | - |
| 1777909840 | 16.67° C | 47% | 1019.7 hPa | - | - | - | - |
| 1777909801 | 16.67° C | 47% | 1019.7 hPa | - | - | - | - |
| 1777908900 | 16.67° C | 50% | 1019.7 hPa | - | - | - | - |
| 1777907999 | 16.11° C | 50% | 1019.9 hPa | - | - | - | - |
| 1777907098 | 16.67° C | 47% | 1019.9 hPa | - | - | - | - |
| 1777906198 | 16.67° C | 47% | 1019.9 hPa | - | - | - | - |
| 1777905296 | 16.67° C | 50% | 1019.7 hPa | - | - | - | - |
| 1777904395 | 16.67° C | 51% | 1019.6 hPa | - | - | - | - |
| 1777903494 | 16.11° C | 50% | 1019.4 hPa | - | - | - | - |
| 1777902593 | 16.11° C | 49% | 1019.3 hPa | - | - | - | - |
| 1777901691 | 16.11° C | 49% | 1019.4 hPa | - | - | - | - |
| 1777900828 | 15.56° C | 49% | 1019.4 hPa | - | - | - | - |
| 1777900790 | 15.56° C | 49% | 1019.4 hPa | - | - | - | - |
| 1777899889 | 15.56° C | 50% | 1019.5 hPa | - | - | - | - |
| 1777898988 | 15.56° C | 49% | 1019.4 hPa | - | - | - | - |
| 1777898087 | 15° C | 51% | 1019.3 hPa | - | - | - | - |
| 1777897235 | 15° C | 49% | 1019.3 hPa | - | - | - | - |
| 1777897187 | 15° C | 49% | 1019.3 hPa | - | - | - | - |
| 1777896285 | 15.56° C | 46% | 1019.3 hPa | - | - | - | - |
| 1777895415 | 15° C | 49% | 1019.1 hPa | - | - | - | - |
* Rain since midnight (hover to see other rain measurements)
** Current wind speed in m/s (hover to see current wind gust speed)